STARLINK-5838, 57073

Orbit data source: Space-Track

STARLINK-5838, 57073 is a payload satellite owned by SpaceX/Seattle (US) in LEO that was launched on Thu, 22 Jun 2023 UTC via an FALCON 9 launch vehicle from the Air Force Western Test Range (AFWTR). Payload-class satellites include a variety of spacecraft equipped with specific instruments for various scientific and technological missions. These include communications satellites like Starlink; space stations such as the ISS; scientific satellites like the Hubble; Earth observation satellites from companies like Planet Labs, Umbra, and HawkEye 360; GPS; miniature CubeSats for education and research; and military/defense satellites.

Loading next visibility...
Identifier
57073, 2023-088AB
Orbit
LEO
Country
Flag of USUS
Related business
Manufacturer
SpaceX/Seattle
Mission
Operational Commercial Communications
Bus & Motor
STARLINK, Unknown motor
Mass
305 kg wet, ~290 kg dry
Launch date (UTC)
Icon of a cake. It is the launch day of the satellite!2023-06-22 (3 years ago)
Launch vehicle
FALCON 9
Launch site
Air Force Western Test Range (AFWTR)
Object type
Payload
Rocket body
Debris
Shape & HBR
Box + 1 Pan, 10.1 m
Radar Cross Section
11.087 m², Large (>1 m²)

Expand to show TLE details & history
Last TLE update: 2 days ago

TLE from 2 days ago
0 STARLINK-5838
1 57073U 23088AB  26171.44279823  .00000406  00000-0  24278-4 0  9996
2 57073  43.0034 235.9577 0001774 269.6078  90.4570 15.27578956165230
Epoch: 2026-06-20T10:37Z
TLE epoch observation values (Epoch: 2026-06-20T10:37:37.767Z)
Latitude
-0.00003°
Longitude
167.89295°
Altitude
482.838 km
Speed
7.626 km/s
True Right ascension
15h 43m 49s
True Declination
0° 00' 00"
Sunlit
Object was in full shadow at epoch
Visualization orbit readout
Latitude
Unknown
Longitude
Unknown
Altitude
Unknown
Speed
Unknown
Apparent Right ascension
Unknown
Apparent Declination
Unknown
Sunlit
N/A
Visualization observer readout
Local Sidereal Time
21:42:31
Azimuth
Unknown
Elevation
Unknown
Doppler factor
Unknown
Orbital elements
Apogee altitude
486.214 km
Perigee altitude
483.779 km
Semi-major axis
6,863.134 km
Eccentricity
0.00018
Inclination
43.0034°
RAAN
235.9577°
Arg. of periapsis
269.6078°
True anomaly
90.47733°
Mean anomaly
90.457°
Eccentric anomaly
90.46716°
Mean motion
3.81733 °/min
Orbital period
94.31 mins
BSTAR
0.000024278
Loading maneuver chart data...
Computing Atmospheric mass density...
Loading historical data...
Loading historical data...
Loading historical data...
Loading historical data...
Loading historical data...
Loading historical data...
Loading historical data...

Documentation

Showing up to 5 results
|